{"data":{"norad_id":45142,"epoch":"2026-09-20T00:59:09.293856Z","epoch_age_seconds":53888,"freshness":"FRESH","line1":"1 45142U 20008M   26263.04107979 -.00000658  00000+0 -19216-2 0  9993","line2":"2 45142  87.8902  17.3903 0001313  90.4193 269.7085 13.10372566320634","mean_motion":13.10372566,"eccentricity":0.0001313,"inclination_deg":87.8902,"raan_deg":17.3903,"arg_perigee_deg":90.4193,"mean_anomaly_deg":269.7085,"bstar":-0.0019216,"rev_number":32063,"period_min":109.8924105528,"perigee_km":1220.7202602941,"apogee_km":1222.7159822489,"semimajor_km":7599.8551212715,"source":"CELESTRAK","updated_at":"2026-09-20T09:00:44.546977Z"}}